Location: Newark
(43.0000°N, 1.6781°W)
Time: 22:32:14
(UTC+00:00)

Vanguard 1 Rocket - Pass Details

Date: 27 April 2021
Orbit: 652 x 4224 km, 34.3° (Epoch: 10 May)

Event Time Altitude Azimuth Distance (km) Brightness Sun altitude
Rises 08:57:58 0° 209° (SSW) 7,025 11.9 40.7°
Reaches altitude 10° 09:05:03 10° 196° (SSW) 5,271 11.5 41.9°
Maximum altitude 09:13:47 19° 157° (SSE) 3,504 11.2 43.4°
Drops below altitude 10° 09:19:46 10° 115° (ESE) 3,450 11.4 44.3°
Sets 09:23:03 0° 98° (E) 4,005 11.4 44.9°
